Location: Unspecified
(0.0000°N, 0.0000°E)
Time: 06:03:53
(UTC+00:00)

OTV 5 (USA 277) - Pass Details

Date: 11 January 2018
Orbit: 404 x 417 km, 43.0° (Epoch: 07 September)

Event Time Altitude Azimuth Distance (km) Brightness Sun altitude
Rises 20:11:09 0° 212° (SSW) 2,348 ? -28.4°
Reaches altitude 10° 20:13:22 10° 204° (SSW) 1,483 ? -28.9°
Enters shadow 20:13:36 12° 202° (SSW) 1,392 ? -28.9°
